Starlink 11421

operational
NORAD ID: 61945 Int'l Des: 2024-209 Owner: SPXS Country: US Constellation: starlink
LEOCIRCULAR

Über Starlink 11421

Beschreibung wird geladen...

Live-Position

3D-Globus wird geladen...

Nächste Überflüge

Höhenverlauf

Altitude vs Time

uPlot chart will show altitude changes over time

Zweizeiliger Elementsatz

1 61945U 24209G 25258.20473044 .00387238 00000-0 30375-2 0 9999
2 61945 53.1577 156.5134 0000978 110.3149 249.7974 15.69842553 49118
Epoch: 15. Sept. 2025 • Age: 20 hours

Aktueller Status

Höhe 366.0 km
Geschwindigkeit 7.69 km/s
Subsatellitenpunkt -26.81°S, 125.71°E
Startdatum 14. Nov. 2024
Alter 0.8 years
Typ internet

Technische Details

Klassifizierung Payload
Masse 960.00 kg
Trockenmasse 910.00 kg
Gesamtmasse 960.00 kg
Länge 0.30 m
Durchmesser 4.10 m
Spannweite 29.00 m
Form Box + pan
Hersteller SPXS
Bus-Typ Starlink V2MD
Phasenstatus In Orbit
Besitzer/Staat SPXS/US

Große Konstellationen

Loading constellations...